TimeEST,TemperatureF,Dew PointF,Humidity,Sea Level PressureIn,VisibilityMPH,Wind Direction,Wind SpeedMPH,Gust SpeedMPH,PrecipitationIn,Events,Conditions,WindDirDegrees,DateUTC
12:44 AM,35.1,32.0,89,30.03,2.0,Calm,Calm,-,0.00,Rain,Light Rain,0,2014-02-21 05:44:00
12:53 AM,35.1,33.1,92,30.02,1.8,Calm,Calm,-,0.00,Rain,Light Rain,0,2014-02-21 05:53:00
1:22 AM,34.0,33.1,96,30.00,0.8,Calm,Calm,-,0.02,Rain,Light Rain,0,2014-02-21 06:22:00
1:33 AM,34.0,33.1,96,29.99,1.0,Calm,Calm,-,0.02,Rain,Light Rain,0,2014-02-21 06:33:00
1:41 AM,34.0,34.0,100,29.99,0.8,Calm,Calm,-,0.02,Rain,Light Rain,0,2014-02-21 06:41:00
1:53 AM,34.0,33.1,96,29.99,0.5,West,3.5,-,0.02,Fog-Rain,Light Rain,280,2014-02-21 06:53:00
2:05 AM,34.0,33.1,96,29.98,0.2,Calm,Calm,-,0.00,Fog-Rain,Light Rain,0,2014-02-21 07:05:00
2:53 AM,34.0,33.1,96,29.95,0.2,Calm,Calm,-,0.00,Fog,Fog,0,2014-02-21 07:53:00
3:39 AM,34.0,33.1,96,29.95,0.5,Calm,Calm,-,N/A,Fog,Fog,0,2014-02-21 08:39:00
3:53 AM,34.0,34.0,100,29.95,0.5,Calm,Calm,-,N/A,Fog,Fog,0,2014-02-21 08:53:00
4:20 AM,35.1,34.0,96,29.96,0.5,Calm,Calm,-,N/A,Fog,Fog,0,2014-02-21 09:20:00
4:32 AM,34.0,33.1,96,29.96,0.8,Calm,Calm,-,N/A,,Overcast,0,2014-02-21 09:32:00
4:53 AM,34.0,33.1,96,29.97,0.5,Calm,Calm,-,N/A,Fog,Fog,0,2014-02-21 09:53:00
5:14 AM,34.0,33.1,96,29.96,0.2,Calm,Calm,-,N/A,Fog,Fog,0,2014-02-21 10:14:00
5:24 AM,34.0,33.1,96,29.97,0.5,Calm,Calm,-,N/A,Fog,Fog,0,2014-02-21 10:24:00
5:35 AM,34.0,33.1,96,29.97,0.5,Calm,Calm,-,N/A,Fog,Fog,0,2014-02-21 10:35:00
5:53 AM,34.0,33.1,96,29.95,0.2,Calm,Calm,-,N/A,Fog,Fog,0,2014-02-21 10:53:00
6:20 AM,34.0,33.1,96,29.95,0.5,Calm,Calm,-,N/A,Fog,Fog,0,2014-02-21 11:20:00
6:39 AM,34.0,33.1,96,29.95,0.2,Calm,Calm,-,N/A,Fog,Fog,0,2014-02-21 11:39:00
6:53 AM,34.0,33.1,96,29.94,0.5,Calm,Calm,-,N/A,Fog,Fog,0,2014-02-21 11:53:00
7:53 AM,34.0,33.1,96,29.92,0.2,Calm,Calm,-,N/A,Fog,Fog,0,2014-02-21 12:53:00
8:53 AM,34.0,34.0,100,29.92,0.2,Calm,Calm,-,N/A,Fog,Fog,0,2014-02-21 13:53:00
9:40 AM,36.0,35.1,97,29.89,0.2,Calm,Calm,-,N/A,Fog,Fog,0,2014-02-21 14:40:00
9:53 AM,35.1,34.0,96,29.88,0.2,Calm,Calm,-,N/A,Fog,Fog,0,2014-02-21 14:53:00
10:53 AM,35.1,34.0,96,29.87,1.0,Calm,Calm,-,N/A,,Overcast,0,2014-02-21 15:53:00
11:00 AM,36.0,36.0,100,29.87,0.2,Calm,Calm,-,N/A,Fog,Fog,0,2014-02-21 16:00:00
11:20 AM,37.0,36.0,96,29.85,0.5,Calm,Calm,-,N/A,Fog,Fog,0,2014-02-21 16:20:00
11:30 AM,37.0,36.0,96,29.84,1.2,Calm,Calm,-,N/A,,Overcast,0,2014-02-21 16:30:00
11:51 AM,37.4,35.6,93,29.82,3.0,Calm,Calm,-,N/A,,Overcast,0,2014-02-21 16:51:00
11:52 AM,37.0,36.0,96,29.82,4.0,Calm,Calm,-,N/A,,Overcast,0,2014-02-21 16:52:00
12:53 PM,37.0,37.0,100,29.75,2.5,Calm,Calm,-,N/A,,Overcast,0,2014-02-21 17:53:00
12:57 PM,37.9,37.0,97,29.75,0.8,Calm,Calm,-,N/A,,Overcast,0,2014-02-21 17:57:00
1:04 PM,37.0,37.0,100,29.74,2.5,Calm,Calm,-,N/A,,Overcast,0,2014-02-21 18:04:00
1:53 PM,39.0,37.9,96,29.68,2.5,Calm,Calm,-,N/A,,Overcast,0,2014-02-21 18:53:00
2:53 PM,41.0,39.9,96,29.64,2.5,ESE,5.8,-,N/A,,Overcast,120,2014-02-21 19:53:00
3:08 PM,42.1,42.1,100,29.67,2.0,SSE,9.2,-,0.00,Rain-Thunderstorm,Light Rain,150,2014-02-21 20:08:00
3:23 PM,42.1,41.0,96,29.65,2.0,ESE,8.1,-,0.05,Rain,Rain,120,2014-02-21 20:23:00
3:53 PM,39.9,39.0,97,29.68,2.0,Variable,4.6,-,0.09,Rain,Rain,0,2014-02-21 20:53:00
4:09 PM,39.0,37.0,93,29.70,2.0,WSW,6.9,-,0.04,Rain,Light Rain,250,2014-02-21 21:09:00
4:17 PM,39.0,37.9,96,29.71,2.0,South,3.5,-,0.04,Rain,Light Rain,190,2014-02-21 21:17:00
4:29 PM,39.0,39.0,100,29.73,2.0,Calm,Calm,-,0.04,Rain,Light Rain,0,2014-02-21 21:29:00
4:43 PM,39.9,37.9,93,29.72,2.0,Variable,3.5,-,0.08,Rain,Rain,0,2014-02-21 21:43:00
4:53 PM,39.9,39.0,97,29.73,2.0,Calm,Calm,-,0.10,Rain,Light Rain,0,2014-02-21 21:53:00
5:09 PM,39.9,39.0,97,29.74,6.0,Calm,Calm,-,0.01,Rain,Light Rain,0,2014-02-21 22:09:00
5:25 PM,37.9,37.0,97,29.73,1.2,Calm,Calm,-,0.01,Rain,Light Rain,0,2014-02-21 22:25:00
5:36 PM,37.0,37.0,100,29.73,3.0,Calm,Calm,-,0.01,,Overcast,0,2014-02-21 22:36:00
5:53 PM,37.9,37.0,97,29.73,3.0,Calm,Calm,-,0.01,Fog,Patches of Fog,0,2014-02-21 22:53:00
6:53 PM,36.0,35.1,97,29.76,10.0,Calm,Calm,-,0.00,Fog,Patches of Fog,0,2014-02-21 23:53:00
7:53 PM,37.0,35.1,93,29.80,10.0,SW,3.5,-,N/A,Fog,Patches of Fog,230,2014-02-22 00:53:00
8:00 PM,36.0,35.1,97,29.81,2.5,SW,3.5,-,N/A,Fog,Patches of Fog,230,2014-02-22 01:00:00
8:08 PM,35.1,33.1,92,29.81,5.0,WSW,5.8,-,N/A,Fog,Patches of Fog,240,2014-02-22 01:08:00
8:53 PM,34.0,33.1,96,29.82,7.0,West,5.8,-,N/A,Fog,Patches of Fog,260,2014-02-22 01:53:00
9:20 PM,32.0,30.9,96,29.82,1.8,SW,3.5,-,N/A,Fog,Patches of Fog,220,2014-02-22 02:20:00
9:31 PM,30.9,28.9,92,29.82,0.8,Calm,Calm,-,N/A,Fog,Patches of Fog,0,2014-02-22 02:31:00
9:44 PM,30.9,30.0,96,29.82,2.0,Variable,3.5,-,N/A,Fog,Patches of Fog,0,2014-02-22 02:44:00
9:53 PM,30.9,30.9,100,29.83,1.2,Calm,Calm,-,N/A,Fog,Patches of Fog,0,2014-02-22 02:53:00
10:06 PM,30.0,28.9,96,29.84,0.5,Calm,Calm,-,N/A,Fog,Patches of Fog,0,2014-02-22 03:06:00
10:17 PM,30.9,28.9,92,29.84,1.0,Calm,Calm,-,N/A,Fog,Patches of Fog,0,2014-02-22 03:17:00
10:23 PM,30.0,28.9,96,29.85,1.8,Calm,Calm,-,N/A,Fog,Patches of Fog,0,2014-02-22 03:23:00
10:36 PM,28.9,28.9,100,29.85,2.5,Calm,Calm,-,N/A,Fog,Patches of Fog,0,2014-02-22 03:36:00
10:42 PM,28.9,28.0,96,29.85,1.0,Calm,Calm,-,N/A,Fog,Patches of Fog,0,2014-02-22 03:42:00
10:53 PM,28.9,28.0,96,29.86,0.8,Calm,Calm,-,N/A,Fog,Patches of Fog,0,2014-02-22 03:53:00
11:03 PM,28.0,26.1,92,29.86,0.2,Calm,Calm,-,N/A,Fog,Patches of Fog,0,2014-02-22 04:03:00
11:33 PM,28.9,27.0,92,29.87,0.8,SE,3.5,-,N/A,Fog,Patches of Fog,130,2014-02-22 04:33:00
11:35 PM,28.9,27.0,92,29.87,1.2,SE,3.5,-,N/A,Fog,Patches of Fog,140,2014-02-22 04:35:00
11:43 PM,28.0,27.0,96,29.88,3.0,Calm,Calm,-,N/A,Fog,Patches of Fog,0,2014-02-22 04:43:00
11:53 PM,26.1,25.0,96,29.88,1.8,Calm,Calm,-,N/A,Fog,Patches of Fog,0,2014-02-22 04:53:00